www.pogodaiklimat.ru

Погода и климат >> Архив погоды >> Россия >> Магаданская область >> Остров Спафарьева


ПОГОДА на Остров Спафарьева

  • Прогноз погоды на Остров Спафарьева
  • Монитор погоды на Остров Спафарьева
  • Климат города

АРХИВ ПОГОДЫ на Остров Спафарьева

Время (UTC), дата Ветер
(напр.,м/с)
 
Видим.   Явления Облачность Т
(С)
Тd
(С)
f
(%)
Тe
(С)
Тes
(С)
Комфортность P
(гПа)
Po
(гПа)
Тmin
(С)
Tmax
(С)
R
(мм)
S
(см)
15 14.02 СВ 9 50 км 3/0
[Ci fib]
-10.7 -18.2 54 -21 -21 1010.3 1003.5
18 14.02 СВ 7-11
{14}
50 км 6/0
[Ci fib]
-10.8 -18.1 55 -20 -20 1010.5 1003.7
21 14.02 В 4
{10}
50 км 6/0
[Ci fib]
-10.8 -16.7 62 -18 -18 1011.2 1004.4 -11.5 11
00 15.02 СВ 5 50 км 9/3 600 м
[Sc Ac trans Ci fib]
-10.7 -18.2 54 -18 -18 1011.9 1005.1 -12.1
03 15.02 СВ 4
{10}
50 км 10/1 600 м
[Sc Cs]
-9.9 -15.6 63 -17 -16 1011.7 1004.9
06 15.02 СВ 5 50 км 10/3 600 м
[Cb cap Cs]
-11.2 -14.3 78 -19 -19 1012.5 1005.6
09 15.02 СВ 6 10 км слабый ливневой снег 10/6 600 м
[Cb cap Cs]
-12.3 -14.9 81 -21 -21 1013.2 1006.3 -9.8 0.0
12 15.02 СВ 7
{10}
50 км позёмок {ливн. осадки, метель} 4/4 600 м
[Cb cap]
-12.3 -14.7 82 -22 -22 1013.3 1006.4
15 15.02 СВ 7-11
{11}
50 км позёмок {метель} ясно -13.4 -16.0 81 -23 -23 1013.6 1006.7
18 15.02 СВ 6
{11}
50 км {метель} 6/1 600 м
[Cb cap Ac trans Ci fib]
-14.4 -17.5 77 -24 -24 1013.5 1006.6
21 15.02 С 1 50 км 1/1 600 м
[Sc]
-15.7 -18.9 76 -18 -18 1014.2 1007.2 -15.7 0.0 11
00 16.02 СЗ 1
{10}
50 км ясно -14.7 -20.8 60 -17 -15 1014.5 1007.5 -16.3
03 16.02 СЗ 1 50 км ясно -14.4 -21.3 56 -17 -14 1014.5 1007.5
06 16.02 С 1 50 км 1/0
[Ci fib]
-14.5 -21.7 54 -17 -17 1007.8 1007.8
09 16.02 СВ 4 50 км 1/0
[Ci fib]
-15.2 -22.2 55 -23 -23 1015.0 1008.1 -13.2
12 16.02 СВ 7-11
{11}
50 км 1/0
[Ci fib]
-15.6 -22.4 56 -26 -26 1015.1 1008.1
15 16.02 СВ 7-10
{13}
50 км 1/0
[Ci fib]
-15.9 -21.7 61 -26 -26 1015.0 1008.0
18 16.02 СВ 6
{12}
50 км 1/0
[Ci fib]
-15.5 -21.7 59 -25 -25 1014.9 1007.9
21 16.02 СВ 5 50 км 3/0
[Ci fib]
-15.2 -22.9 52 -24 -24 1014.7 1007.7 -16.1 11
00 17.02 З 1 50 км 8/3 600 м
[Cb cap Ci fib]
-14.3 -20.6 59 -17 -16 1014.9 1007.9
03 17.02 В 2 10 км слабый ливневой снег 10/3 600 м
[Cb cap Ac trans Cs]
-13.5 -18.0 69 -18 -17 1014.4 1007.5
06 17.02 В 2
{11}
10 км слабый ливневой снег 10/6 600 м
[Cb cap Ac trans Cs]
-13.5 -17.6 71 -18 -18 1013.8 1006.9
09 17.02 СВ 9-13
{13}
50 км позёмок {ливн. осадки, метель} 3/3 600 м
[Cb cap]
-13.5 -17.5 72 -24 -24 1013.7 1006.8 -12.9 0.2
12 17.02 СВ 10-12
{13}
10 км слабый ливневой снег {метель} 10/10 600 м
[Cb cap]
-13.6 -17.1 75 -25 -25 1013.3 1006.4
15 17.02 СВ 9-12
{14}
10 км слабый ливневой снег {метель} 10/10 600 м
[Cb cap]
-13.8 -16.7 79 -25 -25 1012.8 1005.9
18 17.02 СВ 10-13
{14}
50 км позёмок {ливн. осадки, метель} 8/4 600 м
[Cb cap Ac trans Ci fib]
-14.2 -17.0 79 -26 -26 1011.6 1004.6
21 17.02 СВ 8-14
{14}
50 км {метель} 9/8 600 м
[Cb cap Ci fib]
-14.4 -17.7 76 -25 -25 1010.8 1003.9 -14.4 0.0 11
00 18.02 В 6-13
{14}
50 км {метель} 9/3 600 м
[Sc Cs]
-15.0 -18.4 75 -25 -24 1010.3 1003.3 -15.4
03 18.02 В 2
{13}
50 км 3/0
[Ci fib]
-14.0 -18.8 67 -19 -17 1008.5 1001.6
06 18.02 СЗ 5
{13}
50 км 6/0
[Ci fib]
-14.5 -19.2 67 -23 -23 1006.8 999.9
09 18.02 С 3 50 км 5/0
[Ci fib]
-14.7 -20.4 62 -21 -21 1006.4 999.5 -13.8
12 18.02 С 3 50 км 6/0
[Ci fib]
-14.6 -21.4 56 -21 -21 1005.0 998.2
15 18.02 СВ 11-20
{20}
50 км 6/0
[Ci fib]
-14.8 -21.6 56 -27 -27 1002.8 995.9
18 18.02 СВ 14-25
{25}
50 км 9/0
[Ci fib]
-13.6 -20.7 55 -27 -27 1000.7 993.8
21 18.02 СВ 16-19
{25}
50 км 10/4 600 м
[Sc Cs]
-13.0 -19.3 59 -27 -27 999.7 992.9 -15.1 11
00 19.02 СВ 11-17
{21}
10 км слабый ливневой снег {метель} 10/10 600 м
[Cb cap]
-12.4 -17.1 68 -24 -24 1000.9 994.1
03 19.02 СВ 14-18
{21}
200 м сильная метель {ливн. осадки} ?/? -12.3 -14.0 87 -25 -25 998.9 992.1
06 19.02 СВ 14-19
{19}
500 м сильная метель {ливн. осадки} ?/? -10.8 -12.5 87 -23 -23 998.8 992.0
09 19.02 СВ 15-19
{20}
500 м сильная метель ?/? -9.6 -11.4 87 -22 -22 999.0 992.3 -9.5 1
12 19.02 СВ 13-19
{20}
500 м сильная метель ?/? -7.4 -10.7 77 -19 -19 999.7 993.0
15 19.02 СВ 12-15
{19}
4000 м метель 4/4 600 м
[Cb cap]
-7.4 -11.8 71 -18 -18 1000.0 993.4
18 19.02 СВ 13-18
{19}
4000 м метель 10/10 600 м
[Cb cap]
-7.3 -11.5 72 -18 -18 1000.1 993.4
21 19.02 СВ 13-16
{19}
50 км сильный позёмок {метель} 10/6 600 м
[Cb cap Cs]
-7.9 -12.5 69 -19 -19 1001.0 994.2 -9.8 0.2
00 20.02 СВ 13-16
{19}
50 км позёмок {метель} 9/8 600 м
[Cb cap Ci fib]
-6.9 -11.5 70 -18 -18 1001.6 995.0
03 20.02 СВ 13-17
{19}
50 км позёмок {метель} 9/8 600 м
[Cb cap Ac trans]
-7.1 -12.4 66 -18 -18 1000.5 993.8
06 20.02 С 8-12
{19}
50 км позёмок {метель} 9/4 600 м
[Sc Ac trans Ci fib]
-6.7 -13.2 60 -16 -16 1001.6 994.9
09 20.02 С 9-13
{15}
50 км {метель} 9/4 600 м
[Sc Ac trans Ci fib]
-6.9 -13.9 57 -16 -16 1002.4 995.7 -6.4
12 20.02 СВ 7-12
{16}
50 км {метель} 10/4 600 м
[Sc As trans]
-6.7 -12.2 65 -15 -15 1003.3 996.7
15 20.02 СВ 10-15
{16}
50 км 10/4 600 м
[Sc As trans]
-6.8 -12.8 62 -17 -17 1003.4 996.7
18 20.02 СВ 12-16
{16}
50 км 9/4 600 м
[Sc Cs]
-7.3 -12.4 67 -18 -18 1003.5 996.8
21 20.02 СВ 8-11
{16}
10 км слабый ливневой снег {метель} 10/10 600 м
[Cb cap]
-7.1 -8.9 87 -16 -16 1004.1 997.5 -7.7 0.0 10
00 21.02 СВ 8-12
{13}
2000 м слабый ливневой снег {метель} 10/10 600 м
[Cb cap]
-6.8 -8.8 86 -16 -16 1004.1 997.4
03 21.02 СВ 10-14
{15}
1000 м слабый ливневой снег {метель} 10/10 600 м
[Cb cap]
-7.0 -8.7 88 -17 -17 1003.5 996.8
06 21.02 В 6-12
{16}
500 м слабый ливневой снег {метель} ?/? -5.1 -6.1 93 -13 -13 1003.8 997.2
09 21.02 В 12-20
{21}
500 м ливневой снег {метель} ?/? -4.9 -7.5 82 -15 -15 1004.7 998.0 -4.9 5

 

Местоположение метеостанции Остров Спафарьева (Магаданская область, Россия): широта 59.15 долгота 149.00 высота над уровнем моря 52 м.

В архиве по умолчанию представлена погода на Остров Спафарьева за последнюю неделю. Архивные данные за месяц целиком и за предыдущие месяцы, начиная с января 2011 года, Вы можете получить, выбрав интересующий диапазон дат из раскрывающегося списка и нажав кнопку "Ввод!".

Внимание! Время в таблицах - всемирное. Для получения местного времени необходимо прибавить поправку, которая на Остров Спафарьева равна 11 ч.

Смотрите также архив погоды в соседних городах и на ближайших метеорологических станциях:

Погода в Талоне (Магаданская область, Россия) (72 км)
Погода в Армани (Магаданская область, Россия) (84 км)
Погода в Магадане (Магаданская область, Россия) (106 км)
Погода в Оле (Магаданская область, Россия) (133 км)
Погода на Мысе Алевина (Магаданская область, Россия) (137 км)
Погода в Палатке (Магаданская область, Россия) (150 км)
Погода в Мадауне (Магаданская область, Россия) (187 км)
Погода в Усть-Омчуге (Магаданская область, Россия) (222 км)
Погода на Мысе Братьев (Магаданская область, Россия) (245 км)
Погода в Талае (Магаданская область, Россия) (286 км)

Пояснения к столбцам:

Ветер - указаны скорость ветра в м/с - средняя за 10 мин, порывы в срок и между сроками (в фигурных скобках) и направление, откуда дует ветер: С - северный, СВ - северо-восточный, В - восточный, ЮВ - юго-восточный, Ю - южный, ЮЗ - юго-западный, З - западный, СЗ - северо-западный.
Видимость - горизонтальная дальность видимости в метрах или километрах. При видимости от 1 до 10 км при отсутствии осадков обычно наблюдается дымка, при ухудшении видимости до 1 км и менее - туман. В сухую погоду видимость может ухудшаться дымом, пылью или мглою.
Явления - указаны атмосферные явления, наблюдавшиеся в срок или в последний час перед сроком; фигурными скобками обозначены явления, наблюдавшиеся между сроками (за 1-3 часа до срока); квадратными скобками обозначены град или гололедные отложения с указанием их диаметра в мм.
Облачность - указаны через наклонную черту общая и нижняя облачность в баллах и высота нижней границы облаков в метрах; квадратными скобками обозначены формы облаков: Ci - перистые, Cs - перисто-слоистые, Cc - перисто-кучевые, Ac - высококучевые, As - высокослоистые, Sc - слоисто-кучевые, Ns - слоисто-дождевые, Cu - кучевые, Cb - кучево-дождевые. Подробнее классификацию облаков см. в Атласе облаков (PDF).
T - Температура воздуха - температура, измеренная на высоте 2 м над землей.
Td - Температура точки росы - температура, при понижении до которой содержащийся в воздухе водяной пар достигнет насыщения.
f - Относительная влажность воздуха - влажноcть воздуха, измеренная на высоте 2 м над землей.
Te - Эффективная температура - температура, которую ощущает одетый по сезону человек в тени. Характеристика душности погоды. При расчете учитывается влияние влажности воздуха и скорости ветра на теплоощущения человека.
Tes - Эффективная температура на солнце - температура, которую ощущает человек, с поправкой на солнечный нагрев. Характеристика знойности погоды. Зависит от высоты солнца над горизонтом, облачности и скорости ветра. Ночью, в пасмурную погоду, а также при ветре 12 м/с и более поправка равна нулю.
P - Атмосферное давление - приведенное к уровню моря атмосферное давление.
Po - Атмосферное давление - измеренное на уровне метеостанции атмосферное давление.
Tmin - Минимальная температура - минимум температуры воздуха на высоте 2 м над землей.
Tmax - Максимальная температура - максимум температуры воздуха на высоте 2 м над землей.
R - Количество осадков - Количество выпавших осадков, мм. При наведении курсора мыши на число - период времени, за который выпало указанное количество осадков.
S - Снежный покров - Высота снежного покрова, см. При наведении курсора мыши на число - состояние снежного покрова и степень покрытия местности в баллах.